Flag for Canada Weather past 2 weeks in Camrose, Alberta, Canada

Now
46 °F

Broken clouds.


Feels Like: 41 °F
Forecast: 38 / 64 °F
Wind: 10 mph from Southeast

Location: Edmonton International

Current Time: Mar 30, 2015 at 8:44:42 PM

Latest Report: Mar 30, 2015 at 8:00 PM


Visibility: 15 mi

Pressure: 29.86 "Hg

Humidity: 53%

Dew point: 30 °F

Location of CamroseLocation

Historic Weather in Camrose — Graph

°F

Camrose temperature yesterday

Maximum temperature yesterday: 57 °F (at 2:00 PM)
Minimum temperature yesterday: 25 °F (at 7:00 AM)
Average temperature yesterday: 42 °F

Past Weeks' High & Low Weather Summary

 TemperatureHumidityPressure
High59 °F (Mar 27, 5:00 PM)100% (Mar 20, 1:00 AM)30.52 "Hg (Mar 20, 1:00 AM)
Low7 °F (Mar 22, 10:00 PM)33% (Mar 16, 2:00 PM)29.55 "Hg (Mar 28, 4:00 AM)
Average32 °F77%30.07 "Hg
* Reported Mar 15 7:00 PM — Mar 30 7:00 PM, Camrose, Weather by CustomWeather, © 2015

Note: Actual official high and low records may vary slightly from our data, if they occured in-between our weather recording intervals... More about our weather records

Advertising

Camrose weather history for previous 24 hours

 ConditionsComfort  
Time TempWeatherWind HumidityBarometerVisibility
7:00 PM
Mon, Mar 30
52 °FPartly sunny.10 mph41%29.87 "Hg15 mi
6:00 PM55 °FPartly sunny.8 mph38%29.88 "Hg15 mi
5:00 PM55 °FPartly sunny.10 mph36%29.89 "Hg15 mi
4:00 PM55 °FScattered clouds.10 mph38%29.91 "Hg15 mi
3:00 PM54 °FPartly sunny.5 mph35%29.94 "Hg15 mi
2:00 PM52 °FBroken clouds.3 mph35%29.98 "Hg15 mi
1:00 PM50 °FPartly sunny.3 mph35%29.99 "Hg15 mi
12:00 PM48 °FBroken clouds.6 mph37%30.02 "Hg15 mi
11:00 AM48 °FBroken clouds.9 mph43%30.02 "Hg15 mi
10:00 AM43 °FPartly sunny.8 mph57%30.02 "Hg15 mi
9:00 AM37 °FPassing clouds.8 mph70%30.02 "Hg15 mi
8:00 AM28 °FPassing clouds.5 mph86%30.02 "Hg15 mi
7:00 AM30 °FPassing clouds.7 mph75%30.01 "Hg15 mi
6:00 AM30 °FPassing clouds.7 mph80%30.00 "Hg15 mi
5:00 AM34 °FPartly cloudy.5 mph75%29.99 "Hg15 mi
4:00 AM36 °FPartly cloudy.No wind70%29.97 "Hg15 mi
3:00 AM39 °FPassing clouds.7 mph65%29.96 "Hg15 mi
2:00 AM37 °FPartly cloudy.7 mph75%29.96 "Hg15 mi
1:00 AM41 °FPassing clouds.8 mph66%29.93 "Hg15 mi
12:00 AM34 °FPassing clouds.9 mph87%29.93 "Hg15 mi
11:45 PM
Sun, Mar 29
36 °FPassing clouds.7 mph81%29.93 "Hg15 mi
11:00 PM41 °FPartly cloudy.5 mph70%29.91 "Hg15 mi
10:00 PM45 °FScattered showers. Partly cloudy.10 mph61%29.88 "Hg15 mi
9:00 PM41 °FPartly sunny.5 mph76%29.86 "Hg15 mi
8:00 PM50 °FBroken clouds.18 mph54%29.84 "Hg15 mi
Weather by CustomWeather, © 2015

See weather overviewHow to use our weather pages